Location: Izdebnik
(49.8699°N, 19.7619°E)
Time: 02:42:26
(UTC+01:00)

ISS - Pass Details

Date: 30 January 2019
Orbit: 403 x 411 km, 51.6° (Epoch: 19 February)

Event Time Altitude Azimuth Distance (km) Brightness Sun altitude
Rises 19:02:30 0° 279° (W) 2,339 1.4 -24.3°
Reaches altitude 10° 19:04:36 10° 283° (WNW) 1,478 0.0 -24.6°
Enters shadow 19:06:31 31° 294° (WNW) 751 -2.0 -24.9°
